Location: Unspecified
(40.7945°N, 0.0000°E)
Time: 15:54:15
(UTC+00:00)

TIGRISAT - Pass Details

Date: 24 August 2019
Orbit: 605 x 689 km, 97.7° (Epoch: 15 September)

Event Time Altitude Azimuth Distance (km) Brightness Sun altitude
Rises 20:08:24 0° 24° (NNE) 3,023 ? -15.3°
Reaches altitude 10° 20:10:57 10° 36° (NE) 2,091 ? -15.7°
Maximum altitude 20:14:51 27° 95° (E) 1,243 ? -16.4°
Enters shadow 20:15:02 27° 99° (E) 1,244 ? -16.4°
